Miscellaneous Local Product
Issued by NWS Hastings, NE

Home | Current Version | Previous Version | Graphics & Text | Print | Product List | Glossary On
Versions: 1 2 3 4 5 6 7 8 9 10 11 12 13 14 15 16 17 18 19 20 21 22 23 24 25 26 27 28 29 30 31 32 33 34 35 36 37 38 39 40 41 42 43 44 45 46 47 48 49 50
000
AXUS43 KGID 281002
MISGRI

GID CWA HOURLY WEATHER ROUNDUP
NATIONAL WEATHER SERVICE HASTINGS NE
500 AM CDT FRI AUG 28 2015

NOTE: "FAIR" INDICATES FEW OR NO CLOUDS BELOW 12,000 FEET WITH NO
SIGNIFICANT WEATHER AND/OR OBSTRUCTIONS TO VISIBILITY.

...SOUTH CENTRAL NEBRASKA...

CITY           SKY/WX    TMP DP  RH WIND       PRES   REMARKS
GRAND ISLAND   CLEAR     69  66  90 SW10      29.82S
HASTINGS       CLEAR     69  67  93 SW3       29.83R
KEARNEY        CLOUDY    68  64  88 NW7       29.86R
ORD            CLOUDY    67  65  93 NW8       29.83F
YORK           MOCLDY    72  68  88 SW8       29.82F
AURORA         PTCLDY    69  69  98 SW6       29.82S
LEXINGTON      CLEAR     69  67  94 NW14      29.88S
HOLDREGE       CLEAR     67  65  93 W5        29.86S FOG
HEBRON         PTCLDY    73  65  77 S15G24    29.83S

...NEBRASKA PANHANDLE...

CITY           SKY/WX    TMP DP  RH WIND       PRES   REMARKS
CHADRON        CLEAR     54  51  90 S5        30.01S
ALLIANCE       CLEAR     50  49  96 W6        30.04S
SCOTTSBLUFF    CLEAR     57  55  93 NW6       30.07S
SIDNEY         PTCLDY    58  54  86 NW10      30.09S

...WESTERN AND NORTH CENTRAL NEBRASKA...

CITY           SKY/WX    TMP DP  RH WIND       PRES   REMARKS
VALENTINE      NOT AVBL
AINSWORTH      CLOUDY    68  67  99 NW9       29.90S FOG
ONEILL         CLOUDY    66  65  97 NE3       29.86R FOG
BROKEN BOW     CLOUDY    70  67  90 NW10      29.88R FOG
IMPERIAL       CLEAR     61  56  83 NW13      30.00R
NORTH PLATTE   PTCLDY    61  60  97 CALM      29.94S
MCCOOK         CLEAR     66  62  87 W13       29.93S

...EASTERN NEBRASKA...

CITY           SKY/WX    TMP DP  RH WIND       PRES   REMARKS
NORFOLK        CLOUDY    68  66  93 SE6       29.79F
SO SIOUX CITY  LGT RAIN  67  62  84 E14       29.83F
TEKAMAH        HVY RAIN  68  66  93 S10       29.82F FOG
COLUMBUS       CLOUDY   N/A N/A N/A SE5       29.80F
ALBION         CLOUDY    68  65  92 NW3       29.82S FOG
OMAHA EPPLEY   LGT RAIN  69  66  90 SE20      29.83F
OFFUTT AFB     CLOUDY    67  67 100 SE17      29.83S
MILLARD        CLOUDY    70  67  90 SE10G20   29.84S
LINCOLN        CLOUDY    71  67  87 S8        29.83S
NEBRASKA CITY  CLOUDY    67  67  99 S16G22    29.87F
BEATRICE       CLOUDY    73  65  77 S17G24    29.83F
FALLS CITY     CLOUDY    68  65  90 E8        29.91S

...NORTHERN KANSAS...

CITY           SKY/WX    TMP DP  RH WIND       PRES   REMARKS
GOODLAND       CLEAR     61  57  87 W9        30.03F
HILL CITY      PTCLDY    70  65  84 W7        29.90S
NORTON         SUNNY     68  63  83 W10G17    29.89S
PHILLIPSBURG   CLEAR     73  66  78 W8        29.87S
SMITH CENTER   CLEAR     68  63  83 SW9       29.86R
HAYS           MOCLDY    73  59  60 SW10      29.90R
RUSSELL        MOCLDY    73  66  78 SW14      29.87F
CONCORDIA      PTCLDY    71  67  87 S17       29.85F
SALINA         CLOUDY    77  63  61 S9        29.87S
TOPEKA         CLOUDY    70  63  78 S7        29.94F



USA.gov is the U.S. government's official web portal to all federal, state and local government web resources and services.